South Lake Tahoe, CA

5:27 AM PDT on June 26, 2017 (GMT -0700)
Lake Tahoe

Weather History for KTVL - May, 2014

Change the Weather History Date:

Thursday, May 1, 2014

  Actual Average Record
Temperature  
Mean Temperature 52 °F 44 °F  
Max Temperature 74 °F 59 °F 78 °F (1985)
Min Temperature 29 °F 29 °F 20 °F (1988)
Degree Days  
Heating Degree Days 13 21  
Month to date heating degree days 13 21  
Since 1 July heating degree days 6054 6911  
Cooling Degree Days 0 0  
Month to date cooling degree days 0 0  
Year to date cooling degree days 0 0  
Moisture  
Dew Point 24 °F    
Average Humidity 45    
Maximum Humidity 75    
Minimum Humidity 15    
Precipitation  
Precipitation 0.00 in - 1.00 in (1975)
Month to date precipitation 0.00  
Year to date precipitation 11.10  
Sea Level Pressure  
Sea Level Pressure 30.25 in    
Wind  
Wind Speed 3 mph (SW)    
Max Wind Speed 14 mph    
Max Gust Speed 20 mph    
Visibility 10 miles    
Events      
T = Trace of Precipitation, MM = Missing Value Source: NWS Daily Summary

Daily Weather History Graph

Daily Weather History Graph

Search for Another Location

Airport or City:

Trip Planner

Search our weather history database for the weather conditions in past years. The results will help you decide how hot, cold, wet, or windy it might be!

Date:

Astronomy

May. 01, 2014 Rise Set
Actual Time 6:02 AM PDT 7:52 PM PDT
Civil Twilight 5:33 AM PDT 8:21 PM PDT
Nautical Twilight 4:58 AM PDT 8:56 PM PDT
Astronomical Twilight 4:21 AM PDT 9:34 PM PDT
Moon 7:54 AM PDT (5/1) 10:29 PM PDT (5/1)
Length of Visible Light 14h 48m
Length of Day
13h 50m
Waxing Crescent, 7% of the Moon is Illuminated
May 1
Waxing Crescent
May 6
First Quarter
May 14
Full
May 21
Last Quarter
May 28
New

Hourly Weather History & Observations

Time (PDT) Temp. Windchill Dew Point Humidity Pressure Visibility Wind Dir Wind Speed Gust Speed Precip Events Conditions
12:53 AM 36.0 °F 33.3 °F 23.0 °F 59% 30.28 in 10.0 mi SW 3.5 mph - N/A   Clear
1:53 AM 34.0 °F 31.0 °F 21.9 °F 61% 30.27 in 10.0 mi West 3.5 mph - N/A   Clear
2:53 AM 32.0 °F - 21.9 °F 66% 30.27 in 10.0 mi Calm Calm - N/A   Clear
3:53 AM 30.9 °F - 21.9 °F 69% 30.27 in 10.0 mi Calm Calm - N/A   Clear
5:53 AM 28.9 °F - 21.0 °F 72% 30.27 in 10.0 mi Calm Calm - N/A   Clear
6:53 AM 30.0 °F 26.5 °F 21.9 °F 72% 30.29 in 10.0 mi South 3.5 mph - N/A   Clear
7:53 AM 39.0 °F 36.8 °F 25.0 °F 57% 30.27 in 10.0 mi South 3.5 mph - N/A   Clear
8:53 AM 53.1 °F - 21.0 °F 29% 30.26 in 10.0 mi Calm Calm - N/A   Clear
9:53 AM 60.1 °F - 21.0 °F 22% 30.25 in 10.0 mi Variable 3.5 mph - N/A   Clear
10:53 AM 64.0 °F - 21.0 °F 19% 30.24 in 10.0 mi Calm Calm - N/A   Clear
11:53 AM 68.0 °F - 21.0 °F 17% 30.24 in 10.0 mi Variable 3.5 mph - N/A   Clear
12:53 PM 66.9 °F - 19.0 °F 16% 30.24 in 10.0 mi North - - N/A   Clear
1:53 PM 70.0 °F - 23.0 °F 17% 30.23 in 10.0 mi NNE 8.1 mph - N/A   Clear
2:53 PM 71.1 °F - 27.0 °F 19% 30.23 in 10.0 mi Variable 4.6 mph - N/A   Clear
3:53 PM 70.0 °F - 19.9 °F 15% 30.23 in 10.0 mi SW 9.2 mph 19.6 mph N/A   Clear
4:53 PM 70.0 °F - 21.0 °F 16% 30.23 in 10.0 mi SW 8.1 mph - N/A   Clear
5:53 PM 66.9 °F - 24.1 °F 20% 30.24 in 10.0 mi SSW 8.1 mph - N/A   Clear
6:53 PM 63.0 °F - 28.9 °F 28% 30.24 in 10.0 mi Variable 3.5 mph - N/A   Clear
7:53 PM 55.9 °F - 30.9 °F 39% 30.24 in 10.0 mi Calm Calm - N/A   Clear
8:53 PM 51.1 °F - 28.9 °F 43% 30.23 in 10.0 mi Calm Calm - N/A   Clear
9:53 PM 48.0 °F - 30.0 °F 50% 30.23 in 10.0 mi SSW 3.5 mph - N/A   Clear
10:53 PM 44.1 °F - 28.9 °F 55% 30.23 in 10.0 mi Calm Calm - N/A   Clear
11:53 PM 42.1 °F - 28.9 °F 60% 30.22 in 10.0 mi Calm Calm - N/A   Clear